Regional Weather Roundup
Issued by NWS

Home | Current Version | Previous Version | Text Only | Print | Product List | Glossary On
Versions: 1 2 3 4 5 6 7 8 9 10 11 12 13 14 15 16 17 18 19 20 21 22 23 24 25 26 27 28 29 30 31 32 33 34 35 36 37 38 39 40 41 42 43 44 45 46 47 48 49 50
000
ASUS44 KOUN 020810
RWROK

WEATHER ROUNDUP FOR OKLAHOMA
NATIONAL WEATHER SERVICE NORMAN OK
300 AM CDT THU APR 02 2015

NOTE: "FAIR" INDICATES FEW OR NO CLOUDS BELOW 12,000 FEET WITH NO
      SIGNIFICANT WEATHER AND/OR OBSTRUCTIONS TO VISIBILITY.

OKZ001>007-009>012-014-015-017-020900-
NORTHWEST OKLAHOMA AND THE PANHANDLE

CITY           SKY/WX    TMP DP  RH WIND       PRES   REMARKS
GAGE           PTCLDY    63  44  50 W10       29.65R
GUYMON         CLEAR     56  40  55 N14       29.79R
ENID/WOODRING  PTCLDY    66  61  82 S18       29.61F
$$

OKZ016-021>023-033>039-044-045-020900-
SOUTHWEST OKLAHOMA

CITY           SKY/WX    TMP DP  RH WIND       PRES   REMARKS
LAWTON/REGL    PTCLDY    65  61  87 SE9       29.73F
LAWTON/FT SILL PTCLDY    64  64  99 S12       29.71F
FREDERICK      PTCLDY    68  58  70 S15       29.69F
CLINTON        CLEAR     63  56  78 S15       29.71R
HOBART         PTCLDY    64  57  78 S16       29.70F
ALTUS AFB      PTCLDY    65  59  81 S10       29.69F
$$

OKZ018>020-024>031-020900-
CENTRAL OKLAHOMA

CITY           SKY/WX    TMP DP  RH WIND       PRES   REMARKS
OKLAHOMA CITY  PTCLDY    69  60  73 S18G26    29.70F
OKC/WILEY POST PTCLDY    69  60  73 S23G35    29.68F
OKC/TINKER AFB PTCLDY    67  61  80 S25       29.70F
STILLWATER     CLOUDY    68  61  78 S14       29.67F
GUTHRIE        PTCLDY    70  61  73 S18G31    29.65F
$$

OKZ008-013-054>072-020900-
NORTHEAST OKLAHOMA

CITY           SKY/WX    TMP DP  RH WIND       PRES   REMARKS
TULSA          CLOUDY    68  63  84 S13       29.71F
PONCA CITY     MOCLDY    69  61  75 S17G29    29.62F
BARTLESVILLE   CLOUDY    69  62  78 S17G35    29.67R
MUSKOGEE       PTCLDY    68  62  81 S15       29.77F
$$

OKZ032-040>043-046>053-073>077-020900-
SOUTH CENTRAL/SOUTHEAST OKLAHOMA

CITY           SKY/WX    TMP DP  RH WIND       PRES   REMARKS
ARDMORE/DWNTWN CLOUDY    68  63  83 S10G22    29.78F
MCALESTER      MOCLDY    67  61  81 S13G24    29.79F
$$



USA.gov is the U.S. government's official web portal to all federal, state and local government web resources and services.